SCP
0 0 0 0 0 0 0 0 0 0 0 0 0 0 0 0 0 0 0 0 0 0 0 0 0 0 0 0 0 1 1 0 0 0 0 0 0 0
0 0 0 0 0 0 0 0 0 0 0 0 0 0 0 0 0 0 0 0 0 0 0 0 0 0 0 0 0 0 0 0 0 0 0 0 0 0
0 0 0 0 0 0 0 0 0 0 0 0 0 0 0 0 0 0 0 0 0 0 0 0 0 0 0 0 0 0 0 0 0 0 0 0 0 0
1 0 0 0 0 0 0 0 0 0 0 0 0 0 0 0 0 0 0 0 0 0 0 0 0 0 0 0 0 0 0 0 0 0 0 0 0 0
1 1 0 0 0 0 0 1 0 0 0 0 0 0 0 0 0 0 0 0 0 0 0 0 0 0 0 0 0 0 0 0 0 0 0 0 0 0
1 1 0 0 0 0 0 1 0 0 0 0 0 0 0 0 0 0 0 0 0 0 0 0 0 0 0 0 0 0 0 0 0 0 0 0 0 0
1 1 0 0 0 0 0 0 0 0 0 0 0 0 0 0 0 0 0 0 0 0 0 0 0 0 0 0 0 0 0 0 0 0 0 0 0 0
1 1 0 0 0 0 0 0 0 0 0 0 0 0 0 0 0 0 0 0 0 0 0 0 0 0 0 0 0 0 0 0 0 0 0 0 0 0
0 0 0 0 0 0 0 0 0 0 0 0 0 0 0 0 0 0 0 0 0 0 0 0 0 0 0 0 0 0 0 0 0 0 0 0 0 0
0 0 0 0 0 0 0 0 0 0 0 0 0 0 0 0 0 0 0 0 0 0 0 0 0 0 0 0 0 0 0 0 0 0 0 0 0 0
0 0 0 0 0 0 0 0 0 0 0 0 0 0 0 0 0 0 0 0 0 0 0 0 0 0 0 0 0 0 0 0 0 0 0 0 0 0
0 0 0 0 0 0 0 0 0 0 0 0 0 0 0 0 0 0 0 0 0 0 0 0 0 0 0 0 0 0 0 0 0 0 0 0 0 0
0 0 0 0 0 0 0 0 0 0 0 0 0 0 0 0 0 0 0 0 0 0 0 0 0 0 0 0 0 0 0 0 0 0 0 0 0 0
0 0 0 0 0 0 0 0 0 0 0 0 0 0 0 0 0 0 0 0 0 0 0 0 0 0 0 0 0 0 0 0 0 0 0 0 0 0
0 0 0 0 0 0 0 0 0 0 0 0 0 0 0 0 0 0 0 0 0 0 0 0 0 0 0 0 0 0 0 0 0 0 0 0 0 0
0 0 0 0 0 0 0 0 0 0 0 0 0 0 0 0 0 0 0 0 0 0 0 0 0 0 0 0 0 0 0 0 0 0 0 0 0 0
0 0 0 0 0 0 0 0 0 0 0 0 0 0 0 0 0 0 0 0 0 0 0 0 0 0 0 0 0 0 0 0 0 0 0 0 0 0
0 0 0 0 0 0 0 0 0 0 0 0 0 0 0 0 0 0 0 0 0 0 0 0 0 0 0 0 0 0 0 0 0 0 0 0 0 0
0 0 0 0 0 0 0 0 0 0 0 0 0 0 0 0 0 0 0 0 0 0 0 0 0 0 0 0 0 0 0 0 0 0 0 0 0 0
0 0 0 0 0 0 0 0 0 0 0 0 0 0 0 0 0 0 0 0 0 0 0 0 0 0 0 0 0 0 0 0 0 0 0 0 0 0
0 0 0 0 0 0 0 0 0 0 0 0 0 0 0 0 0 0 0 0 0 0 0 0 0 0 0 0 0 0 0 0 0 0 0 0 0 0
0 0 0 0 0 0 0 0 0 0 0 0 0 0 0 0 0 0 0 0 0 0 0 0 0 0 0 0 0 0 0 0 0 0 0 0 0 0
0 0 0 0 0 0 0 0 0 0 0 0 0 0 0 0 0 0 0 0 0 0 0 0 0 0 0 0 0 0 0 0 0 0 0 0 0 0
Wind_Speed
11 11 10 8 7 6 5 6 6 7 8 6 5 5 6 5 8 6 6 11 14 14 13 13 12 12 12 12 12 12 11 11 11 11 13 14 14 14
9 11 11 8 7 7 7 6 7 8 8 5 6 4 5 5 8 6 7 11 12 13 13 13 13 13 13 12 12 12 12 11 12 12 13 13 14 14
11 12 13 10 8 7 7 6 7 7 10 6 3 3 5 5 4 5 5 5 6 10 11 12 12 12 12 11 11 12 12 11 11 12 12 13 13 14
13 12 12 9 10 8 7 8 8 8 8 9 4 3 5 6 5 5 4 4 4 9 11 11 11 11 11 10 10 10 10 10 10 11 12 12 13 13
12 12 12 11 12 9 9 8 7 7 6 6 6 3 3 3 3 3 3 3 4 6 9 10 11 11 11 11 11 10 10 11 11 11 11 12 12 13
11 11 11 11 12 11 9 9 7 7 6 6 5 3 3 3 3 4 3 3 4 3 5 6 7 9 11 11 11 11 11 11 11 11 11 11 12 13
9 9 10 10 11 9 7 7 8 7 6 6 5 4 4 4 5 4 5 3 3 2 3 3 3 4 5 8 10 11 11 11 11 11 12 12 12 12
8 8 8 9 10 11 11 10 9 9 8 7 6 6 7 6 5 4 4 3 4 3 3 4 3 4 4 4 8 11 11 11 11 11 12 11 11 12
8 7 5 6 8 7 8 9 9 10 10 8 8 8 7 7 7 6 5 5 4 3 3 3 2 4 4 5 9 11 11 11 11 11 11 11 11 12
6 6 6 5 6 6 6 6 6 6 7 7 7 7 5 5 7 7 6 3 1 1 2 3 2 3 3 3 8 10 9 9 9 9 10 11 11 12
4 4 5 5 7 7 6 6 5 3 3 5 4 4 4 6 6 5 4 3 2 2 2 2 2 1 2 3 4 7 8 8 8 9 10 10 11 11
3 3 5 6 7 8 6 6 5 4 2 3 3 3 3 4 6 5 6 5 3 3 3 3 2 1 2 2 2 2 3 6 8 8 9 10 10 5
3 3 3 6 7 8 7 5 6 4 4 4 3 3 2 2 2 1 3 4 4 3 4 4 2 2 2 2 2 2 2 2 3 5 7 9 10 7
3 3 3 6 6 7 5 5 6 6 4 4 3 3 2 2 1 1 1 1 2 3 5 5 3 4 3 2 3 2 2 3 3 4 3 7 8 10
2 3 4 6 6 5 5 6 6 4 4 3 3 2 2 2 2 2 2 2 2 1 2 3 3 3 3 3 2 2 2 3 3 3 3 4 4 4
1 2 3 4 4 4 4 3 2 3 4 3 3 2 2 2 2 2 2 2 1 1 0 1 2 4 3 3 4 4 3 3 3 3 4 5 4 5
2 1 1 2 3 2 2 2 3 3 3 3 4 3 3 3 2 1 2 2 1 1 1 0 1 1 3 4 3 4 4 3 4 3 3 5 5 5
3 2 2 2 3 3 3 3 3 3 3 3 3 3 3 3 2 2 2 2 2 2 2 1 0 1 1 2 6 4 3 3 3 3 3 4 6 4
2 2 2 2 2 3 3 3 3 3 3 3 3 3 3 3 3 2 2 1 1 1 1 1 2 2 1 3 3 5 4 3 3 3 3 4 6 6
1 1 1 2 2 2 3 3 3 3 3 3 3 3 3 3 3 2 2 2 1 1 1 1 2 3 3 3 2 3 5 4 3 4 4 4 5 7
1 1 1 1 2 2 2 3 3 3 3 3 3 3 3 3 3 2 2 2 1 2 2 3 3 3 1 0 1 3 3 5 5 4 4 3 4 3
0 1 1 1 2 2 2 3 3 3 4 3 3 3 3 3 3 3 2 2 2 2 2 2 1 0 1 1 2 3 4 4 5 6 6 6 3 3
0 1 1 1 2 2 2 3 4 3 3 3 3 3 3 3 2 2 2 2 2 1 1 1 0 0 1 2 2 2 3 4 3 3 4 6 7 9
Wind_Direction
222 221 226 230 225 224 221 211 215 241 248 225 219 218 212 207 209 207 216 223 222 222 223 226 230 235 240 243 248 251 254 260 264 266 270 275 279 282
222 223 227 229 228 224 224 226 222 229 249 227 213 207 200 206 207 206 212 217 222 223 224 225 230 234 238 242 245 247 251 255 258 262 267 273 277 281
224 224 229 226 225 226 224 224 227 224 243 251 210 201 197 205 209 210 215 217 222 226 228 228 232 235 238 241 244 248 251 254 258 262 268 272 277 281
226 225 229 226 227 225 223 224 227 225 229 244 237 203 207 204 203 205 212 214 219 226 227 230 232 233 234 236 241 245 249 253 255 259 265 271 275 279
226 226 228 224 227 225 224 225 226 227 225 231 237 217 206 189 191 208 211 220 226 228 230 233 233 232 235 238 239 241 243 247 251 256 262 268 272 276
227 227 227 224 228 225 224 225 221 223 223 222 228 219 206 180 177 200 216 214 226 231 235 234 237 239 240 239 237 237 240 244 250 256 261 264 269 272
227 227 227 226 227 225 223 221 215 219 220 217 220 215 208 188 201 192 209 210 232 214 222 229 229 232 235 243 241 241 241 244 248 255 260 263 266 270
224 226 225 222 221 220 222 220 215 215 220 217 217 217 218 209 193 187 191 192 232 204 204 239 215 230 233 229 243 242 242 247 252 257 260 263 267 271
218 218 220 222 218 218 219 218 217 215 212 215 217 219 214 205 188 192 197 200 215 186 179 233 219 236 235 242 246 242 245 249 254 260 263 265 267 272
217 216 214 215 213 207 208 215 222 222 218 219 222 222 216 197 191 192 190 176 150 173 168 220 220 235 251 250 249 243 245 253 259 264 266 269 272 276
217 212 214 215 210 194 194 205 215 229 216 203 202 189 178 174 163 147 150 155 202 210 183 193 209 250 260 250 248 248 252 254 260 264 268 273 276 279
214 211 215 214 199 187 192 195 208 213 182 161 142 123 138 156 161 174 173 171 170 200 188 176 179 158 276 265 246 249 254 264 268 267 272 277 278 274
206 209 213 203 194 188 191 197 200 176 167 158 147 133 122 131 140 148 168 169 173 195 181 163 166 173 199 275 281 250 237 254 259 261 270 277 278 276
212 208 202 187 185 184 188 181 155 138 140 142 141 147 151 148 134 115 118 129 156 185 180 166 169 179 180 229 264 276 262 247 244 253 256 274 275 276
211 195 181 173 172 176 172 160 145 141 142 144 159 163 151 144 131 110 82 81 65 82 158 168 169 178 184 204 229 244 279 267 241 249 263 264 259 257
131 145 154 150 139 133 139 147 144 146 145 150 148 133 121 123 134 142 137 124 104 29 18 185 191 181 199 217 218 239 235 249 258 265 274 272 262 246
130 99 102 119 123 121 116 120 123 125 122 122 130 130 130 128 128 117 124 131 145 179 218 247 222 217 219 207 221 235 241 253 256 263 274 281 269 252
132 135 141 147 149 148 142 134 131 135 134 135 138 141 144 144 137 127 134 147 155 176 189 193 111 27 4 278 221 227 238 248 263 266 260 274 280 270
119 143 151 153 150 147 147 146 148 146 141 142 146 148 147 147 149 150 152 150 157 186 206 187 176 174 217 274 274 220 220 258 275 276 261 256 270 277
82 128 141 141 143 148 150 146 144 142 141 144 147 149 151 154 157 160 165 166 177 191 218 209 201 203 210 230 256 264 244 246 255 269 276 279 278 279
77 106 135 140 145 149 149 152 156 156 151 151 154 155 157 157 162 168 171 180 176 189 219 237 239 260 240 180 268 277 269 260 263 260 266 283 291 289
99 132 132 138 150 155 156 155 153 154 157 161 160 161 163 165 168 171 174 181 199 212 228 251 263 228 165 207 257 278 293 298 291 287 263 251 253 260
184 156 150 153 156 155 158 160 161 165 167 166 162 164 167 167 170 172 180 186 190 200 206 244 302 235 231 233 251 271 286 304 311 315 297 295 291 280